| time (UTC) | temp F | wind direction | speed knots | gust knots | rain 1hr in | rain 24hr in | rain mn in | humidity % | barometer mb |
| 20260904092418 | 144 | 149 | 0.0 | 7.0 | 0.00 | 0.00 | 0.00 | 100 | 1012.8 |
| 20260904091916 | 144 | 149 | 0.0 | 7.0 | 0.00 | 0.00 | 0.00 | 100 | 1012.8 |
| 20260904091401 | 144 | 163 | 0.0 | 4.3 | 0.00 | 0.00 | 0.00 | 100 | 1012.6 |
| 20260904090902 | 144 | 113 | 0.0 | 4.3 | 0.00 | 0.00 | 0.00 | 100 | 1012.6 |
| 20260904090358 | 144 | 161 | 0.0 | 7.8 | 0.00 | 0.00 | 0.00 | 100 | 1012.6 |
| 20260904085839 | 144 | 119 | 0.0 | 10.4 | 0.00 | 0.00 | 0.00 | 100 | 1012.8 |
| 20260904085319 | 144 | 160 | 0.0 | 9.6 | 0.00 | 0.00 | 0.00 | 100 | 1012.8 |
| 20260904084819 | 144 | 184 | 0.9 | 6.1 | 0.00 | 0.00 | 0.00 | 100 | 1012.8 |
| 20260904084302 | 144 | 196 | 0.9 | 5.2 | 0.00 | 0.00 | 0.00 | 100 | 1012.8 |
| 20260904083803 | 144 | 230 | 0.9 | 5.2 | 0.00 | 0.00 | 0.00 | 100 | 1012.8 |
| 20260904083259 | 144 | 106 | 0.0 | 7.8 | 0.00 | 0.00 | 0.00 | 100 | 1012.8 |
| 20260904082756 | 144 | 132 | 0.0 | 7.8 | 0.00 | 0.00 | 0.00 | 100 | 1012.8 |
| 20260904082249 | 144 | 147 | 0.0 | 6.1 | 0.00 | 0.00 | 0.00 | 100 | 1012.8 |
| 20260904081743 | 144 | 147 | 0.0 | 6.1 | 0.00 | 0.00 | 0.00 | 100 | 1012.9 |
| 20260904081241 | 144 | 209 | 2.6 | 4.3 | 0.00 | 0.00 | 0.00 | 100 | 1012.9 |
| 20260904081011 | 144 | 156 | 0.0 | 7.8 | 0.00 | 0.00 | 0.00 | 100 | 1013.0 |
| 20260904080226 | 144 | 136 | 1.7 | 8.7 | 0.00 | 0.00 | 0.00 | 100 | 1012.9 |
| 20260904075725 | 144 | 135 | 1.7 | 8.7 | 0.00 | 0.00 | 0.00 | 100 | 1012.9 |
| 20260904075222 | 144 | 126 | 2.6 | 8.7 | 0.00 | 0.00 | 0.00 | 100 | 1012.9 |
| 20260904074723 | 144 | 147 | 3.5 | 10.4 | 0.00 | 0.00 | 0.00 | 100 | 1012.9 |
| 20260904074450 | 144 | 150 | 4.3 | 10.4 | 0.00 | 0.00 | 0.00 | 100 | 1013.0 |
| 20260904073718 | 144 | 150 | 3.5 | 6.1 | 0.00 | 0.00 | 0.00 | 100 | 1013.0 |
| 20260904073218 | 144 | 180 | 3.5 | 8.7 | 0.00 | 0.00 | 0.00 | 100 | 1013.0 |
| 20260904072707 | 144 | 182 | 0.9 | 7.8 | 0.00 | 0.00 | 0.00 | 100 | 1013.0 |
| 20260904072208 | 144 | 185 | 1.7 | 6.1 | 0.00 | 0.00 | 0.00 | 100 | 1013.1 |
| 20260904071705 | 144 | 146 | 3.5 | 6.1 | 0.00 | 0.00 | 0.00 | 100 | 1013.1 |
| 20260904071206 | 144 | 127 | 3.5 | 6.1 | 0.00 | 0.00 | 0.00 | 100 | 1013.2 |
| 20260904070657 | 144 | 154 | 0.9 | 7.8 | 0.00 | 0.00 | 0.00 | 100 | 1013.2 |
| 20260904070427 | 144 | 115 | 2.6 | 7.8 | 0.00 | 0.00 | 0.00 | 100 | 1013.2 |
| 20260904065657 | 144 | 181 | 0.9 | 7.0 | 0.00 | 0.00 | 0.00 | 100 | 1013.2 |
| 20260904065149 | 144 | 172 | 3.5 | 7.0 | 0.00 | 0.00 | 0.00 | 100 | 1013.2 |
| 20260904064650 | 144 | 177 | 5.2 | 7.0 | 0.00 | 0.00 | 0.00 | 100 | 1013.3 |
| 20260904064148 | 144 | 170 | 2.6 | 7.8 | 0.00 | 0.00 | 0.00 | 100 | 1013.4 |
| 20260904063646 | 144 | 161 | 4.3 | 7.8 | 0.00 | 0.00 | 0.00 | 100 | 1013.3 |
| 20260904063145 | 144 | 191 | 2.6 | 7.8 | 0.00 | 0.00 | 0.00 | 100 | 1013.3 |
| 20260904062642 | 144 | 164 | 0.0 | 7.8 | 0.00 | 0.00 | 0.00 | 100 | 1013.2 |
| 20260904062141 | 144 | 154 | 2.6 | 7.8 | 0.00 | 0.00 | 0.00 | 100 | 1013.1 |
| 20260904061641 | 144 | 123 | 0.9 | 9.6 | 0.00 | 0.00 | 0.00 | 100 | 1013.2 |
| 20260904061133 | 144 | 174 | 4.3 | 9.6 | 0.00 | 0.00 | 0.00 | 100 | 1013.2 |
| 20260904060633 | 144 | 184 | 0.9 | 9.6 | 0.00 | 0.00 | 0.00 | 100 | 1013.2 |
| 20260904060131 | 144 | 181 | 3.5 | 9.6 | 0.00 | 0.00 | 0.00 | 100 | 1013.3 |
| 20260904055626 | 144 | 199 | 3.5 | 9.6 | 0.00 | 0.00 | 0.00 | 100 | 1013.3 |
| 20260904055126 | 144 | 140 | 2.6 | 7.8 | 0.00 | 0.00 | 0.00 | 100 | 1013.2 |
| 20260904054626 | 144 | 165 | 3.5 | 10.4 | 0.00 | 0.00 | 0.00 | 100 | 1013.2 |
| 20260904054356 | 144 | 147 | 2.6 | 10.4 | 0.00 | 0.00 | 0.00 | 100 | 1013.2 |
| 20260904053619 | 144 | 120 | 4.3 | 9.6 | 0.00 | 0.00 | 0.00 | 100 | 1013.1 |
| 20260904053118 | 144 | 223 | 0.0 | 13.0 | 0.00 | 0.00 | 0.00 | 100 | 1013.0 |
| 20260904052620 | 144 | 194 | 6.1 | 13.0 | 0.00 | 0.00 | 0.00 | 100 | 1013.0 |
| 20260904052120 | 144 | 161 | 4.3 | 8.7 | 0.00 | 0.00 | 0.00 | 100 | 1012.9 |
| 20260904052104 | 144 | 184 | 5.2 | 7.8 | 0.00 | 0.00 | 0.00 | 100 | 1012.8 |
| 20260904051332 | 144 | 201 | 0.9 | 10.4 | 0.00 | 0.00 | 0.00 | 100 | 1012.8 |
| 20260904050602 | 144 | 151 | 3.5 | 10.4 | 0.00 | 0.00 | 0.00 | 100 | 1012.8 |
| 20260904050101 | 144 | 160 | 0.0 | 10.4 | 0.00 | 0.00 | 0.00 | 100 | 1012.8 |
| 20260904045601 | 144 | 150 | 3.5 | 10.4 | 0.00 | 0.00 | 0.00 | 100 | 1012.8 |
| 20260904045057 | 144 | 147 | 1.7 | 9.6 | 0.00 | 0.00 | 0.00 | 100 | 1012.8 |
| 20260904044829 | 144 | 160 | 0.0 | 7.8 | 0.00 | 0.00 | 0.00 | 100 | 1012.9 |
| 20260904044056 | 144 | 182 | 0.0 | 7.8 | 0.00 | 0.00 | 0.00 | 100 | 1012.8 |
| 20260904043544 | 144 | 101 | 2.6 | 7.8 | 0.00 | 0.00 | 0.00 | 100 | 1012.8 |
| 20260904043044 | 144 | 150 | 0.9 | 8.7 | 0.00 | 0.00 | 0.00 | 100 | 1012.9 |
| 20260904042543 | 144 | 158 | 1.7 | 8.7 | 0.00 | 0.00 | 0.00 | 100 | 1012.8 |
| 20260904042315 | 144 | 177 | 4.3 | 7.8 | 0.00 | 0.00 | 0.00 | 100 | 1012.8 |
| 20260904041543 | 144 | 167 | 2.6 | 7.0 | 0.00 | 0.00 | 0.00 | 100 | 1012.8 |
| 20260904041030 | 144 | 171 | 3.5 | 8.7 | 0.00 | 0.00 | 0.00 | 100 | 1012.9 |
| 20260904040515 | 144 | 143 | 3.5 | 8.7 | 0.00 | 0.00 | 0.00 | 100 | 1012.8 |
| 20260904040013 | 144 | 140 | 0.0 | 7.0 | 0.00 | 0.00 | 0.00 | 100 | 1012.6 |
| 20260904035511 | 144 | 167 | 0.9 | 8.7 | 0.00 | 0.00 | 0.00 | 100 | 1012.5 |
| 20260904034508 | 144 | 170 | 4.3 | 9.6 | 0.00 | 0.00 | 0.00 | 100 | 1012.5 |
| 20260904034008 | 144 | 158 | 0.0 | 7.0 | 0.00 | 0.00 | 0.00 | 100 | 1012.5 |
| 20260904033507 | 144 | 115 | 2.6 | 7.0 | 0.00 | 0.00 | 0.00 | 100 | 1012.6 |
| 20260904033001 | 144 | 135 | 4.3 | 8.7 | 0.00 | 0.00 | 0.00 | 100 | 1012.5 |
| 20260904032729 | 144 | 175 | 5.2 | 10.4 | 0.00 | 0.00 | 0.00 | 100 | 1012.5 |
| 20260904031956 | 144 | 111 | 3.5 | 10.4 | 0.00 | 0.00 | 0.00 | 100 | 1012.5 |
| 20260904031456 | 144 | 144 | 2.6 | 8.7 | 0.00 | 0.00 | 0.00 | 100 | 1012.4 |
| 20260904030957 | 144 | 139 | 1.7 | 7.8 | 0.00 | 0.00 | 0.00 | 100 | 1012.4 |
| 20260904030456 | 144 | 143 | 4.3 | 9.6 | 0.00 | 0.00 | 0.00 | 100 | 1012.4 |
| 20260904030225 | 144 | 115 | 5.2 | 11.3 | 0.00 | 0.00 | 0.00 | 100 | 1012.3 |
| 20260904025459 | 144 | 161 | 5.2 | 8.7 | 0.00 | 0.00 | 0.00 | 100 | 1012.3 |
| 20260904025455 | 144 | 172 | 6.1 | 11.3 | 0.00 | 0.00 | 0.00 | 100 | 1012.4 |
| 20260904024455 | 144 | 142 | 4.3 | 7.8 | 0.00 | 0.00 | 0.00 | 100 | 1012.2 |
| 20260904023954 | 144 | 154 | 3.5 | 8.7 | 0.00 | 0.00 | 0.00 | 100 | 1012.3 |
| 20260904023454 | 144 | 164 | 4.3 | 13.0 | 0.00 | 0.00 | 0.00 | 100 | 1012.1 |
| 20260904022956 | 145 | 154 | 7.0 | 13.0 | 0.00 | 0.00 | 0.00 | 100 | 1012.0 |
| 20260904022454 | 145 | 165 | 1.7 | 9.6 | 0.00 | 0.00 | 0.00 | 100 | 1011.9 |
| 20260904021953 | 145 | 118 | 4.3 | 9.6 | 0.00 | 0.00 | 0.00 | 100 | 1011.9 |
| 20260904021725 | 145 | 163 | 4.3 | 8.7 | 0.00 | 0.00 | 0.00 | 100 | 1011.9 |
| 20260904020952 | 145 | 147 | 4.3 | 9.6 | 0.00 | 0.00 | 0.00 | 100 | 1011.8 |
| 20260904020452 | 145 | 182 | 1.7 | 9.6 | 0.00 | 0.00 | 0.00 | 100 | 1011.9 |
| 20260904020222 | 145 | 130 | 3.5 | 8.7 | 0.00 | 0.00 | 0.00 | 100 | 1011.9 |
| 20260904015451 | 145 | 170 | 3.5 | 11.3 | 0.00 | 0.00 | 0.00 | 100 | 1011.7 |
| 20260904014952 | 145 | 171 | 2.6 | 11.3 | 0.00 | 0.00 | 0.00 | 100 | 1011.6 |
| 20260904014452 | 145 | 157 | 5.2 | 8.7 | 0.00 | 0.00 | 0.00 | 100 | 1011.7 |
| 20260904013948 | 145 | 135 | 1.7 | 10.4 | 0.00 | 0.00 | 0.00 | 100 | 1011.6 |
| 20260904013449 | 145 | 160 | 7.0 | 10.4 | 0.00 | 0.00 | 0.00 | 100 | 1011.5 |
| 20260904012948 | 145 | 167 | 2.6 | 8.7 | 0.00 | 0.00 | 0.00 | 100 | 1011.4 |
| 20260904012454 | 145 | 142 | 3.5 | 10.4 | 0.00 | 0.00 | 0.00 | 100 | 1011.2 |
| 20260904012449 | 145 | 157 | 3.5 | 8.7 | 0.00 | 0.00 | 0.00 | 100 | 1011.4 |
| 20260904011447 | 145 | 147 | 4.3 | 12.2 | 0.00 | 0.00 | 0.00 | 100 | 1011.1 |
| 20260904010947 | 145 | 142 | 2.6 | 12.2 | 0.00 | 0.00 | 0.00 | 100 | 1011.1 |
| 20260904010447 | 145 | 202 | 3.5 | 9.6 | 0.00 | 0.00 | 0.00 | 100 | 1011.1 |
| 20260904010217 | 145 | 177 | 3.5 | 8.7 | 0.00 | 0.00 | 0.00 | 100 | 1011.2 |
| 20260904005716 | 145 | 154 | 4.3 | 12.2 | 0.00 | 0.00 | 0.00 | 100 | 1011.2 |
| 20260904004946 | 145 | 158 | 4.3 | 12.2 | 0.00 | 0.00 | 0.00 | 100 | 1011.1 |
| 20260904004444 | 145 | 135 | 2.6 | 10.4 | 0.00 | 0.00 | 0.00 | 100 | 1011.2 |
| 20260904004216 | 145 | 147 | 3.5 | 10.4 | 0.00 | 0.00 | 0.00 | 100 | 1011.3 |
| 20260904003443 | 145 | 158 | 3.5 | 9.6 | 0.00 | 0.00 | 0.00 | 100 | 1011.2 |
| 20260904002941 | 145 | 125 | 5.2 | 10.4 | 0.00 | 0.00 | 0.00 | 100 | 1011.2 |
| 20260904002442 | 145 | 143 | 3.5 | 11.3 | 0.00 | 0.00 | 0.00 | 100 | 1011.1 |
| 20260904001942 | 145 | 146 | 6.1 | 11.3 | 0.00 | 0.00 | 0.00 | 100 | 1011.1 |
| 20260904001442 | 146 | 165 | 4.3 | 9.6 | 0.00 | 0.00 | 0.00 | 100 | 1011.0 |
| 20260904000940 | 146 | 161 | 4.3 | 9.6 | 0.00 | 0.00 | 0.00 | 100 | 1011.0 |
| 20260904000441 | 146 | 143 | 3.5 | 9.6 | 0.00 | 0.00 | 0.00 | 100 | 1010.9 |
| 20260904000212 | 146 | 123 | 5.2 | 11.3 | 0.00 | 0.00 | 0.00 | 100 | 1010.9 |
| 20260903235438 | 146 | 140 | 5.2 | 11.3 | 0.00 | 0.00 | 0.00 | 100 | 1010.8 |
| 20260903234939 | 146 | 129 | 4.3 | 11.3 | 0.00 | 0.00 | 0.00 | 100 | 1010.8 |
| 20260903234438 | 146 | 205 | 5.2 | 11.3 | 0.00 | 0.00 | 0.00 | 100 | 1010.8 |
| 20260903234209 | 146 | 151 | 4.3 | 12.2 | 0.00 | 0.00 | 0.00 | 100 | 1010.9 |
| 20260903233443 | 146 | 174 | 4.3 | 9.6 | 0.00 | 0.00 | 0.00 | 100 | 1010.8 |
| 20260903233439 | 146 | 150 | 5.2 | 12.2 | 0.00 | 0.00 | 0.00 | 100 | 1010.8 |
| 20260903232440 | 146 | 120 | 5.2 | 11.3 | 0.00 | 0.00 | 0.00 | 100 | 1010.7 |
| 20260903231938 | 147 | 133 | 5.2 | 11.3 | 0.00 | 0.00 | 0.00 | 100 | 1010.6 |
| 20260903231436 | 147 | 130 | 3.5 | 9.6 | 0.00 | 0.00 | 0.00 | 100 | 1010.6 |
| 20260903231207 | 147 | 187 | 5.2 | 11.3 | 0.00 | 0.00 | 0.00 | 100 | 1010.5 |
| 20260903230707 | 147 | 123 | 3.5 | 11.3 | 0.00 | 0.00 | 0.00 | 100 | 1010.4 |
| 20260903225936 | 147 | 130 | 5.2 | 13.0 | 0.00 | 0.00 | 0.00 | 100 | 1010.3 |
| 20260903225435 | 147 | 61 | 7.0 | 13.0 | 0.00 | 0.00 | 0.00 | 100 | 1010.3 |
| 20260903224934 | 148 | 163 | 2.6 | 10.4 | 0.00 | 0.00 | 0.00 | 100 | 1010.2 |
| 20260903224434 | 148 | 132 | 5.2 | 13.0 | 0.00 | 0.00 | 0.00 | 100 | 1010.0 |
| 20260903223935 | 148 | 160 | 5.2 | 11.3 | 0.00 | 0.00 | 0.00 | 100 | 1009.7 |
| 20260903223931 | 148 | 118 | 6.1 | 13.0 | 0.00 | 0.00 | 0.00 | 100 | 1009.9 |
| 20260903223202 | 148 | 160 | 4.3 | 11.3 | 0.00 | 0.00 | 0.00 | 100 | 1009.7 |
| 20260903222430 | 148 | 161 | 4.3 | 12.2 | 0.00 | 0.00 | 0.00 | 100 | 1009.9 |
| 20260903221930 | 148 | 127 | 4.3 | 12.2 | 0.00 | 0.00 | 0.00 | 100 | 1009.9 |
| 20260903221430 | 148 | 150 | 5.2 | 11.3 | 0.00 | 0.00 | 0.00 | 100 | 1009.7 |
| 20260903220929 | 148 | 158 | 3.5 | 11.3 | 0.00 | 0.00 | 0.00 | 100 | 1009.7 |
| 20260903220430 | 148 | 144 | 4.3 | 10.4 | 0.00 | 0.00 | 0.00 | 100 | 1009.9 |
| 20260903215926 | 148 | 101 | 5.2 | 10.4 | 0.00 | 0.00 | 0.00 | 100 | 1009.9 |
| 20260903215424 | 148 | 158 | 4.3 | 7.8 | 0.00 | 0.00 | 0.00 | 100 | 1009.9 |
| 20260903215156 | 148 | 170 | 3.5 | 9.6 | 0.00 | 0.00 | 0.00 | 100 | 1009.9 |
| 20260903214425 | 148 | 150 | 7.0 | 9.6 | 0.00 | 0.00 | 0.00 | 100 | 1009.9 |
| 20260903213924 | 148 | 108 | 4.3 | 7.0 | 0.00 | 0.00 | 0.00 | 100 | 1010.0 |
| 20260903213655 | 149 | 106 | 0.0 | 11.3 | 0.00 | 0.00 | 0.00 | 100 | 1010.0 |
| 20260903212916 | 149 | 189 | 4.3 | 11.3 | 0.00 | 0.00 | 0.00 | 100 | 1010.2 |
| 20260903212416 | 149 | 130 | 4.3 | 9.6 | 0.00 | 0.00 | 0.00 | 100 | 1010.2 |
| 20260903212146 | 148 | 116 | 4.3 | 9.6 | 0.00 | 0.00 | 0.00 | 100 | 1010.2 |
| 20260903211412 | 148 | 167 | 4.3 | 9.6 | 0.00 | 0.00 | 0.00 | 100 | 1010.2 |
| 20260903210903 | 148 | 143 | 4.3 | 9.6 | 0.00 | 0.00 | 0.00 | 100 | 1010.2 |
| 20260903210401 | 149 | 154 | 0.9 | 8.7 | 0.00 | 0.00 | 0.00 | 100 | 1010.4 |
| 20260903205902 | 149 | 157 | 0.0 | 7.0 | 0.00 | 0.00 | 0.00 | 100 | 1010.4 |
| 20260903205401 | 149 | 115 | 2.6 | 6.1 | 0.00 | 0.00 | 0.00 | 100 | 1010.5 |
| 20260903204903 | 148 | 129 | 3.5 | 6.1 | 0.00 | 0.00 | 0.00 | 100 | 1010.5 |
| 20260903204632 | 148 | 140 | 1.7 | 7.0 | 0.00 | 0.00 | 0.00 | 100 | 1010.5 |
| 20260903204356 | 148 | 140 | 2.6 | 7.0 | 0.00 | 0.00 | 0.00 | 100 | 1010.5 |
| 20260903203330 | 149 | 129 | 2.6 | 6.1 | 0.00 | 0.00 | 0.00 | 100 | 1010.7 |
| 20260903202830 | 148 | 26 | 1.7 | 5.2 | 0.00 | 0.00 | 0.00 | 100 | 1010.8 |
| 20260903202330 | 149 | 104 | 3.5 | 5.2 | 0.00 | 0.00 | 0.00 | 100 | 1010.9 |
| 20260903201829 | 149 | 160 | 0.0 | 7.8 | 0.00 | 0.00 | 0.00 | 100 | 1010.9 |
| 20260903201329 | 150 | 123 | 0.0 | 7.8 | 0.00 | 0.00 | 0.00 | 100 | 1011.0 |
| 20260903200825 | 150 | 168 | 3.5 | 7.8 | 0.00 | 0.00 | 0.00 | 100 | 1010.9 |
| 20260903200326 | 150 | 123 | 0.0 | 5.2 | 0.00 | 0.00 | 0.00 | 100 | 1011.0 |
| 20260903195819 | 150 | 147 | 0.0 | 7.8 | 0.00 | 0.00 | 0.00 | 100 | 1011.1 |
| 20260903195316 | 149 | 189 | 1.7 | 7.8 | 0.00 | 0.00 | 0.00 | 100 | 1011.2 |
| 20260903194815 | 148 | 187 | 3.5 | 6.1 | 0.00 | 0.00 | 0.00 | 100 | 1011.2 |
| 20260903194316 | 148 | 168 | 0.0 | 9.6 | 0.00 | 0.00 | 0.00 | 100 | 1011.2 |
| 20260903193811 | 148 | 168 | 2.6 | 9.6 | 0.00 | 0.00 | 0.00 | 100 | 1011.3 |
| 20260903193303 | 148 | 109 | 3.5 | 8.7 | 0.00 | 0.00 | 0.00 | 100 | 1011.4 |
| 20260903192803 | 148 | 109 | 1.7 | 8.7 | 0.00 | 0.00 | 0.00 | 100 | 1011.4 |
| 20260903192529 | 149 | 150 | 3.5 | 6.1 | 0.00 | 0.00 | 0.00 | 100 | 1011.5 |
| 20260903191757 | 150 | 209 | 0.0 | 7.8 | 0.00 | 0.00 | 0.00 | 100 | 1011.6 |
| 20260903191257 | 149 | 184 | 3.5 | 8.7 | 0.00 | 0.00 | 0.00 | 100 | 1011.8 |
| 20260903190756 | 149 | 160 | 3.5 | 8.7 | 0.00 | 0.00 | 0.00 | 100 | 1011.8 |
| 20260903190257 | 150 | 97 | 1.7 | 7.8 | 0.00 | 0.00 | 0.00 | 100 | 1011.9 |
| 20260903185756 | 149 | 136 | 1.7 | 7.8 | 0.00 | 0.00 | 0.00 | 100 | 1012.0 |
| 20260903185250 | 149 | 168 | 1.7 | 7.8 | 0.00 | 0.00 | 0.00 | 100 | 1012.1 |
| 20260903184746 | 149 | 154 | 0.9 | 7.8 | 0.00 | 0.00 | 0.00 | 100 | 1012.1 |
| 20260903184247 | 149 | 146 | 0.0 | 7.0 | 0.00 | 0.00 | 0.00 | 100 | 1012.2 |
| 20260903183743 | 149 | 189 | 1.7 | 4.3 | 0.00 | 0.00 | 0.00 | 100 | 1012.3 |
| 20260903183243 | 148 | 189 | 1.7 | 5.2 | 0.00 | 0.00 | 0.00 | 100 | 1012.5 |
| 20260903182743 | 148 | 151 | 0.0 | 5.2 | 0.00 | 0.00 | 0.00 | 100 | 1012.6 |
| 20260903182240 | 148 | 156 | 3.5 | 5.2 | 0.00 | 0.00 | 0.00 | 100 | 1012.8 |
| 20260903181723 | 148 | 136 | 0.9 | 6.1 | 0.00 | 0.00 | 0.00 | 100 | 1012.9 |
| 20260903181210 | 148 | 147 | 3.5 | 6.1 | 0.00 | 0.00 | 0.00 | 100 | 1013.0 |
| 20260903180707 | 148 | 168 | 0.0 | 11.3 | 0.00 | 0.00 | 0.00 | 100 | 1013.0 |
| 20260903180201 | 149 | 146 | 3.5 | 12.2 | 0.00 | 0.00 | 0.00 | 100 | 1013.0 |
| 20260903175701 | 149 | 122 | 4.3 | 8.7 | 0.00 | 0.00 | 0.00 | 100 | 1012.9 |
| 20260903175201 | 148 | 164 | 1.7 | 7.8 | 0.00 | 0.00 | 0.00 | 100 | 1013.1 |
| 20260903174700 | 148 | 156 | 0.9 | 8.7 | 0.00 | 0.00 | 0.00 | 100 | 1013.1 |
| 20260903174200 | 149 | 180 | 2.6 | 8.7 | 0.00 | 0.00 | 0.00 | 100 | 1013.1 |
| 20260903173700 | 148 | 154 | 2.6 | 7.8 | 0.00 | 0.00 | 0.00 | 100 | 1013.2 |
| 20260903173200 | 148 | 188 | 5.2 | 7.8 | 0.00 | 0.00 | 0.00 | 100 | 1013.2 |
| 20260903172657 | 148 | 140 | 2.6 | 8.7 | 0.00 | 0.00 | 0.00 | 100 | 1013.2 |
| 20260903172156 | 148 | 203 | 5.2 | 9.6 | 0.00 | 0.00 | 0.00 | 100 | 1013.4 |
| 20260903171656 | 147 | 106 | 2.6 | 9.6 | 0.00 | 0.00 | 0.00 | 100 | 1013.4 |
| 20260903171155 | 147 | 178 | 2.6 | 8.7 | 0.00 | 0.00 | 0.00 | 100 | 1013.4 |
| 20260903170654 | 147 | 165 | 5.2 | 8.7 | 0.00 | 0.00 | 0.00 | 100 | 1013.4 |
| 20260903170154 | 147 | 185 | 4.3 | 7.8 | 0.00 | 0.00 | 0.00 | 100 | 1013.5 |
| 20260903165653 | 147 | 147 | 3.5 | 7.0 | 0.00 | 0.00 | 0.00 | 100 | 1013.5 |
| 20260903165153 | 147 | 133 | 1.7 | 7.8 | 0.00 | 0.00 | 0.00 | 100 | 1013.5 |
| 20260903164655 | 147 | 233 | 0.9 | 8.7 | 0.00 | 0.00 | 0.00 | 100 | 1013.5 |
| 20260903164651 | 147 | 192 | 4.3 | 8.7 | 0.00 | 0.00 | 0.00 | 100 | 1013.5 |
| 20260903163646 | 147 | 109 | 0.0 | 8.7 | 0.00 | 0.00 | 0.00 | 100 | 1013.5 |
| 20260903163242 | 147 | 185 | 5.2 | 8.7 | 0.00 | 0.00 | 0.00 | 100 | 1013.6 |
| 20260903162136 | 147 | 189 | 5.2 | 8.7 | 0.00 | 0.00 | 0.00 | 100 | 1013.5 |
| 20260903161633 | 147 | 220 | 0.0 | 9.6 | 0.00 | 0.00 | 0.00 | 100 | 1013.6 |
| 20260903161134 | 146 | 208 | 6.1 | 9.6 | 0.00 | 0.00 | 0.00 | 100 | 1013.6 |
| 20260903160634 | 146 | 208 | 6.1 | 9.6 | 0.00 | 0.00 | 0.00 | 100 | 1013.6 |
| 20260903160134 | 146 | 189 | 2.6 | 9.6 | 0.00 | 0.00 | 0.00 | 100 | 1013.5 |
| 20260903155633 | 146 | 216 | 6.1 | 9.6 | 0.00 | 0.00 | 0.00 | 100 | 1013.6 |
| 20260903155133 | 146 | 220 | 4.3 | 7.8 | 0.00 | 0.00 | 0.00 | 100 | 1013.6 |
| 20260903154633 | 146 | 168 | 2.6 | 9.6 | 0.00 | 0.00 | 0.00 | 100 | 1013.6 |
| 20260903154132 | 146 | 184 | 5.2 | 9.6 | 0.00 | 0.00 | 0.00 | 100 | 1013.8 |
| 20260903153632 | 146 | 195 | 4.3 | 8.7 | 0.00 | 0.00 | 0.00 | 100 | 1013.8 |
| 20260903153133 | 146 | 199 | 4.3 | 10.4 | 0.00 | 0.00 | 0.00 | 100 | 1013.8 |
| 20260903152633 | 146 | 208 | 4.3 | 12.2 | 0.00 | 0.00 | 0.00 | 100 | 1013.8 |
| 20260903152133 | 146 | 177 | 6.1 | 12.2 | 0.00 | 0.00 | 0.00 | 100 | 1013.8 |
| 20260903151632 | 146 | 188 | 4.3 | 9.6 | 0.00 | 0.00 | 0.00 | 100 | 1013.8 |
| 20260903151403 | 146 | 178 | 5.2 | 10.4 | 0.00 | 0.00 | 0.00 | 100 | 1013.6 |
| 20260903150631 | 146 | 184 | 7.0 | 10.4 | 0.00 | 0.00 | 0.00 | 100 | 1013.6 |
| 20260903150131 | 146 | 174 | 5.2 | 10.4 | 0.00 | 0.00 | 0.00 | 100 | 1013.6 |
| 20260903145632 | 146 | 185 | 4.3 | 10.4 | 0.00 | 0.00 | 0.00 | 100 | 1013.6 |
| 20260903145132 | 145 | 191 | 6.1 | 13.0 | 0.00 | 0.00 | 0.00 | 100 | 1013.8 |
| 20260903144631 | 145 | 170 | 7.0 | 13.0 | 0.00 | 0.00 | 0.00 | 100 | 1013.8 |
| 20260903144402 | 145 | 226 | 7.8 | 12.2 | 0.00 | 0.00 | 0.00 | 100 | 1013.8 |
| 20260903143632 | 145 | 164 | 3.5 | 11.3 | 0.00 | 0.00 | 0.00 | 100 | 1013.8 |
| 20260903143131 | 145 | 191 | 7.0 | 11.3 | 0.00 | 0.00 | 0.00 | 100 | 1013.9 |
| 20260903142630 | 145 | 195 | 6.1 | 12.2 | 0.00 | 0.00 | 0.00 | 100 | 1013.8 |
| 20260903142130 | 145 | 167 | 5.2 | 12.2 | 0.00 | 0.00 | 0.00 | 100 | 1013.8 |
| 20260903141901 | 145 | 180 | 5.2 | 9.6 | 0.00 | 0.00 | 0.00 | 100 | 1013.6 |
| 20260903141131 | 145 | 208 | 4.3 | 7.8 | 0.00 | 0.00 | 0.00 | 100 | 1013.6 |
| 20260903140630 | 145 | 222 | 2.6 | 9.6 | 0.00 | 0.00 | 0.00 | 100 | 1013.6 |
| 20260903140131 | 145 | 223 | 4.3 | 9.6 | 0.00 | 0.00 | 0.00 | 100 | 1013.6 |
| 20260903135631 | 145 | 205 | 3.5 | 12.2 | 0.00 | 0.00 | 0.00 | 100 | 1013.6 |
| 20260903135402 | 145 | 170 | 4.3 | 12.2 | 0.00 | 0.00 | 0.00 | 100 | 1013.6 |
| 20260903134629 | 145 | 203 | 4.3 | 10.4 | 0.00 | 0.00 | 0.00 | 100 | 1013.6 |
| 20260903134130 | 144 | 153 | 4.3 | 7.8 | 0.00 | 0.00 | 0.00 | 100 | 1013.8 |
| 20260903133859 | 144 | 146 | 3.5 | 8.7 | 0.00 | 0.00 | 0.00 | 100 | 1013.8 |
| 20260903133127 | 144 | 120 | 1.7 | 10.4 | 0.00 | 0.00 | 0.00 | 100 | 1013.8 |
| 20260903132856 | 144 | 180 | 5.2 | 10.4 | 0.00 | 0.00 | 0.00 | 100 | 1013.8 |
| 20260903132131 | 144 | 133 | 2.6 | 8.7 | 0.00 | 0.00 | 0.00 | 100 | 1013.9 |
| 20260903132125 | 144 | 180 | 5.2 | 9.6 | 0.00 | 0.00 | 0.00 | 100 | 1013.8 |
| 20260903131126 | 144 | 136 | 3.5 | 8.7 | 0.00 | 0.00 | 0.00 | 100 | 1013.9 |
| 20260903130626 | 144 | 143 | 0.0 | 7.0 | 0.00 | 0.00 | 0.00 | 100 | 1013.8 |
| 20260903130118 | 144 | 118 | 4.3 | 7.0 | 0.00 | 0.00 | 0.00 | 100 | 1013.8 |
| 20260903130114 | 144 | 157 | 1.7 | 7.8 | 0.00 | 0.00 | 0.00 | 100 | 1013.8 |
| 20260903125110 | 144 | 229 | 3.5 | 9.6 | 0.00 | 0.00 | 0.00 | 100 | 1013.6 |
| 20260903124610 | 144 | 184 | 2.6 | 9.6 | 0.00 | 0.00 | 0.00 | 100 | 1013.6 |
| 20260903124110 | 144 | 154 | 4.3 | 8.7 | 0.00 | 0.00 | 0.00 | 100 | 1013.6 |
| 20260903123609 | 144 | 129 | 0.9 | 5.2 | 0.00 | 0.00 | 0.00 | 100 | 1013.6 |
| 20260903123108 | 144 | 150 | 0.0 | 5.2 | 0.00 | 0.00 | 0.00 | 100 | 1013.6 |
| 20260903122607 | 144 | 206 | 0.0 | 7.0 | 0.00 | 0.00 | 0.00 | 100 | 1013.5 |
| 20260903122056 | 144 | 192 | 2.6 | 7.0 | 0.00 | 0.00 | 0.00 | 100 | 1013.5 |
| 20260903121556 | 144 | 136 | 0.0 | 7.0 | 0.00 | 0.00 | 0.00 | 100 | 1013.4 |
| 20260903121057 | 144 | 192 | 0.9 | 7.0 | 0.00 | 0.00 | 0.00 | 100 | 1013.4 |
| 20260903120557 | 144 | 123 | 2.6 | 5.2 | 0.00 | 0.00 | 0.00 | 100 | 1013.4 |
| 20260903120057 | 144 | 163 | 0.0 | 7.8 | 0.00 | 0.00 | 0.00 | 100 | 1013.4 |
| 20260903115536 | 144 | 153 | 3.5 | 7.8 | 0.00 | 0.00 | 0.00 | 100 | 1013.3 |
| 20260903115531 | 144 | 126 | 1.7 | 7.0 | 0.00 | 0.00 | 0.00 | 100 | 1013.3 |
| 20260903114756 | 144 | 143 | 0.0 | 0.0 | 0.00 | 0.00 | 0.00 | 100 | 1013.3 |
| 20260903114011 | 144 | 143 | 0.0 | 0.0 | 0.00 | 0.00 | 0.00 | 100 | 1013.2 |
| 20260903113510 | 144 | 143 | 0.0 | 0.0 | 0.00 | 0.00 | 0.00 | 100 | 1013.3 |
| 20260903113005 | 144 | 143 | 0.0 | 4.3 | 0.00 | 0.00 | 0.00 | 100 | 1013.2 |
| 20260903112456 | 144 | 143 | 0.0 | 4.3 | 0.00 | 0.00 | 0.00 | 100 | 1013.2 |
| 20260903111956 | 144 | 136 | 1.7 | 7.8 | 0.00 | 0.00 | 0.00 | 100 | 1013.1 |
| 20260903111457 | 144 | 136 | 0.9 | 7.8 | 0.00 | 0.00 | 0.00 | 100 | 1013.1 |
| 20260903111224 | 144 | 153 | 0.9 | 7.0 | 0.00 | 0.00 | 0.00 | 100 | 1013.1 |
| 20260903110442 | 144 | 222 | 2.6 | 7.0 | 0.00 | 0.00 | 0.00 | 100 | 1013.0 |
| 20260903105937 | 144 | 154 | 0.9 | 7.8 | 0.00 | 0.00 | 0.00 | 100 | 1013.0 |
| 20260903105427 | 144 | 151 | 2.6 | 7.8 | 0.00 | 0.00 | 0.00 | 100 | 1013.0 |
| 20260903104927 | 144 | 201 | 0.0 | 5.2 | 0.00 | 0.00 | 0.00 | 100 | 1013.0 |
| 20260903104416 | 144 | 158 | 0.9 | 5.2 | 0.00 | 0.00 | 0.00 | 100 | 1012.9 |
| 20260903103913 | 144 | 154 | 1.7 | 7.0 | 0.00 | 0.00 | 0.00 | 100 | 1012.9 |
| 20260903103412 | 144 | 187 | 0.9 | 8.7 | 0.00 | 0.00 | 0.00 | 100 | 1012.9 |
| 20260903102910 | 144 | 177 | 0.0 | 8.7 | 0.00 | 0.00 | 0.00 | 100 | 1012.8 |
| 20260903102629 | 144 | 180 | 2.6 | 8.7 | 0.00 | 0.00 | 0.00 | 100 | 1012.8 |
| 20260903101857 | 144 | 170 | 0.0 | 9.6 | 0.00 | 0.00 | 0.00 | 100 | 1012.6 |
| 20260903101615 | 144 | 165 | 2.6 | 9.6 | 0.00 | 0.00 | 0.00 | 100 | 1012.6 |
| 20260903100843 | 144 | 167 | 1.7 | 6.1 | 0.00 | 0.00 | 0.00 | 100 | 1012.6 |
| 20260903100337 | 144 | 178 | 3.5 | 6.1 | 0.00 | 0.00 | 0.00 | 100 | 1012.6 |
| 20260903095838 | 144 | 180 | 0.9 | 6.1 | 0.00 | 0.00 | 0.00 | 100 | 1012.6 |
| 20260903095338 | 144 | 157 | 1.7 | 5.2 | 0.00 | 0.00 | 0.00 | 100 | 1012.6 |
| 20260903094836 | 144 | 123 | 0.9 | 6.1 | 0.00 | 0.00 | 0.00 | 100 | 1012.8 |
| 20260903094323 | 144 | 144 | 0.9 | 7.0 | 0.00 | 0.00 | 0.00 | 100 | 1012.9 |
| 20260903093820 | 144 | 146 | 0.9 | 7.0 | 0.00 | 0.00 | 0.00 | 100 | 1012.9 |
| 20260903093542 | 144 | 158 | 1.7 | 7.8 | 0.00 | 0.00 | 0.00 | 100 | 1013.0 |
| 20260903092804 | 144 | 184 | 3.5 | 7.8 | 0.00 | 0.00 | 0.00 | 100 | 1013.0 |
| 20260903092800 | 144 | 208 | 3.5 | 7.8 | 0.00 | 0.00 | 0.00 | 100 | 1013.0 |